Regional Weather Roundup
Issued by NWS

Home | Current Version | Previous Version | Graphics & Text | Print | Product List | Glossary On
Versions: 1 2 3 4 5 6 7 8 9 10 11 12 13 14 15 16 17 18 19 20 21 22 23 24 25 26 27 28 29 30 31 32 33 34 35 36 37 38 39 40 41 42 43 44 45 46 47 48 49 50
000
ASUS43 KMPX 200501
RWRMN
WEATHER ROUNDUP FOR MINNESOTA
NATIONAL WEATHER SERVICE TWIN CITIES/CHANHASSEN MN
1200 AM CDT SUN AUG 20 2017


NOTE: "FAIR" INDICATES FEW OR NO CLOUDS BELOW 12,000 FEET WITH NO
SIGNIFICANT WEATHER AND/OR OBSTRUCTIONS TO VISIBILITY. N/A MEANS
CURRENT SKY AND/OR WEATHER CONDITIONS ARE NOT AVAILABLE.

MNZ060>063-068>070-200600-
   Twin Cities Metro

CITY           SKY/WX    TMP DP  RH WIND       PRES   REMARKS
TWIN CITIES    CLEAR     69  62  78 SE6       29.90S
ST PAUL        CLEAR     66  65  96 SE7       29.91R
CRYSTAL        CLEAR     67  61  81 SE5       29.88S
BLAINE         CLEAR     68  66  94 S3        29.90S
LAKEVILLE      CLEAR     59  59 100 CALM      29.91S FOG
EDEN PRAIRIE   CLEAR     68  63  84 SE7       29.89S
SOUTH ST PAUL  CLEAR     67  65  91 CALM      29.91R
LAKE ELMO      FAIR      63  63 100 S3        29.93R
$$
MNZ001>005-007-008-013>017-022>024-027-028-200600-
   Northwest Minnesota

CITY           SKY/WX    TMP DP  RH WIND       PRES   REMARKS
BEMIDJI        CLEAR     66  59  77 S8        29.83S
HALLOCK        CLEAR     72  63  73 S14G23    29.70R
ROSEAU         PTCLDY    68  63  83 S9        29.73F
WARROAD        CLEAR     68  63  83 S7        29.75S
CROOKSTON      CLEAR     72  63  73 S16G23    29.75S
FOSSTON        PTCLDY    64  61  88 S9        29.80S
DETROIT LAKES  CLEAR     68  63  83 S10       29.83F
MOORHEAD       PTCLDY    68  63  83 S9        29.80S
PARK RAPIDS    CLEAR     66  61  84 S10       29.85F
MAHNOMEN       FAIR      67  62  83 S12       29.80F
$$
MNZ006-009>011-018-025>026-200600-
   North Central Minnesota

CITY           SKY/WX    TMP DP  RH WIND       PRES   REMARKS
BAUDETTE       CLEAR     63  60  90 S7        29.77F
FLAG ISLAND    CLEAR     72  63  73 S3        29.73S
INTL FALLS     CLEAR     64  58  80 VRB3      29.81S
WASKISH        CLEAR     63  59  88 S3        29.80F
BIG FORK       CLEAR     61  57  88 S3        29.84F
LONGVILLE      PTCLDY    61  59  94 CALM      29.86S
GRAND RAPIDS   CLOUDY    61  59  93 S7        29.88S
CRANE LAKE     CLEAR     55  54  94 CALM      29.85S
ORR            CLEAR     61  55  82 S5        29.82F
COOK           CLEAR     64  59  82 SW3       29.86F
WALKER         FAIR      66  60  79 S6        29.85S
$$
MNZ012-019>021-037-200600-
   Northeast Minnesota

CITY           SKY/WX    TMP DP  RH WIND       PRES   REMARKS
DULUTH         PTCLDY    64  60  87 SW6       29.89S
ELY            CLEAR     63  57  82 CALM      29.88R
HIBBING        CLEAR     55  55 100 CALM      29.87F
EVELETH        CLEAR     58  55  91 CALM      29.89S FOG
DULUTH HARBOR  CLOUDY    66  63  88 SW6       29.88S
GRAND MARAIS     N/A     61  59  93 CALM      29.85R
$$
MNZ029>031-032-039>041-046>048-054>057-064-200600-
   West Central Minnesota

CITY           SKY/WX    TMP DP  RH WIND       PRES   REMARKS
FERGUS FALLS   CLEAR     66  64  94 S12       29.82S
WHEATON        CLEAR     64  61  88 SE10      29.82F
MORRIS         CLEAR     64  63  94 SE7       29.84F
ALEXANDRIA     PTCLDY    66  63  90 S8        29.88F
ELBOW LAKE     FAIR      65  64  96 SE9       29.84F
WADENA         CLEAR     63  63 100 SE5       29.86S
GLENWOOD       CLEAR     64  63  94 S3        29.88S
APPLETON       CLEAR     64  61  88 E5        29.84R
BENSON         CLEAR     66  63  88 S5        29.87S
ORTONVILLE     CLEAR     64  63  94 MISG      29.83S
MADISON        CLEAR     64  64 100 SE3       29.84R
WILLMAR        FAIR      64  64 100 SE5       29.88S
$$
MNZ033>034-036-042>043-049>051-058-059-200600-
   Central Minnesota

CITY           SKY/WX    TMP DP  RH WIND       PRES   REMARKS
ST CLOUD       CLEAR     63  63 100 SE5       29.88S
SAUK CENTRE    FAIR      62  61  97 SE5       29.89S
PAYNESVILLE    CLEAR     66  64  92 SE5       29.88F
AITKIN         CLEAR     57  55  94 S3        29.87S
PINE RIVER     CLEAR     57  55  94 CALM      29.90S
BRAINERD       CLEAR     62  59  90 S7        29.88R
STAPLES        CLEAR     61  61 100 S3        29.87S
LONG PRAIRIE   FAIR      61  59  94 E3        29.89S
LITTLE FALLS   CLEAR     61  57  88 CALM      29.89R
LITCHFIELD     CLEAR     70  66  88 CALM      29.89S
BUFFALO        CLEAR     65  62  87 CALM      29.89F
MAPLE LAKE     CLEAR     66  65  94 CALM      29.90S
HUTCHINSON     CLEAR     67  64  92 SE3       29.90S
$$
MNZ037-044-045-052-053-200600-
   East Central Minnesota

CITY           SKY/WX    TMP DP  RH WIND       PRES   REMARKS
PRINCETON      CLEAR     64  63  94 CALM      29.89S
MORA           CLEAR     55  55 100 CALM      29.91S
CAMBRIDGE      CLEAR     66  61  82 CALM      29.90S
RUSH CITY      MOCLDY    62  59  91 S3        29.90S
MOOSE LAKE     CLEAR     57  55  94 CALM      29.87F FOG
HINCKLEY       FAIR      57  57 100 CALM      29.90S
CLOQUET        PTCLDY    64  57  77 CALM      29.89F
MCGREGOR       PTCLDY    61  57  88 CALM      29.89S
$$
MNZ071>073-080-081-089-090-097-098-200600-
   Southwest Minnesota

CITY           SKY/WX    TMP DP  RH WIND       PRES   REMARKS
MONTEVIDEO     CLEAR     64  63  94 S5        29.85R
GRANITE FALLS  CLEAR     67  65  92 SE8       29.86S
CANBY          CLEAR     67  64  89 CALM      29.85R
MARSHALL       CLOUDY    68  64  87 S9        29.86S
REDWOOD FALLS  CLEAR     66  63  90 SE6       29.87S
OLIVIA         CLEAR     68  63  83 S8        29.86S
PIPESTONE      CLOUDY    70  64  83 S9        29.88S
WINDOM         CLOUDY    70  64  83 SE8       29.89F
WORTHINGTON    CLOUDY    69  64  84 S9        29.91S
JACKSON        CLOUDY    68  63  83 CALM      29.90F
TRACY          CLOUDY    71  66  84 S12       29.87F
SLAYTON        CLOUDY    65  60  85 S7        29.90F
$$
MNZ065>067-074>077-082>085-091>093-200600-
   South Central Minnesota

CITY           SKY/WX    TMP DP  RH WIND       PRES   REMARKS
MANKATO        CLEAR     66  63  90 S7        29.91F
NEW ULM        CLEAR     66  64  94 S6        29.89R
ST JAMES       CLOUDY    66  64  94 SE7       29.90S
FAIRMONT       PTCLDY    67  65  93 S6        29.91S
GLENCOE        CLEAR     67  65  96 CALM      29.88F
FARIBAULT      CLEAR     66  63  88 S5        29.92F
OWATONNA       CLEAR     66  63  88 S9        29.92F
WASECA         CLEAR     63  61  94 SE6       29.93R
ALBERT LEA     PTCLDY    72  64  78 S7        29.94R
$$
MNZ078>079-086>088-094>096-200600-
   Southeast Minnesota

CITY           SKY/WX    TMP DP  RH WIND       PRES   REMARKS
ROCHESTER      CLEAR     61  60  97 S6        29.96R
RED WING       CLEAR     63  61  94 CALM      29.92R
DODGE CENTER   CLEAR     61  59  94 S6        29.94F
WINONA         CLEAR     63  61  94 CALM      29.95R
AUSTIN         CLEAR     64  61  88 SE3       29.94F
PRESTON        CLEAR     62  58  86 S5        29.96S
$$
ABBREVIATIONS USED IN REMARKS
   TC - TEMPERATURES IN CELSIUS
  WCI - WIND CHILL INDEX
   HX - HEAT INDEX
  VSB - VISIBILITY
$$




USA.gov is the U.S. government's official web portal to all federal, state and local government web resources and services.